Location: Betzi
(47.2343°N, 9.5260°E)
Time: 00:22:09
(UTC+00:00)

ADEOS II - Pass Details

Date: 27 May 2022
Orbit: 798 x 801 km, 98.6° (Epoch: 26 June)

Event Time Altitude Azimuth Distance (km) Brightness Sun altitude
Rises 02:50:26 0° 4° (N) 3,319 6.1 -6.6°
Reaches altitude 10° 02:53:08 10° 352° (N) 2,384 5.0 -6.3°
Maximum altitude 02:57:20 25° 299° (WNW) 1,570 3.4 -5.8°
Drops below altitude 10° 03:01:31 10° 245° (WSW) 2,371 3.9 -5.2°
Enters shadow 03:02:38 - 239° (WSW) 2,739 4.2 -5.1°
